"2010-01-03 00:00:00",1558364,3.978,294.5,7.822,1.249,6.666,101.4713,3.054,4.387,41.24,0,109.8,13.5,3.82,256.5
"2010-01-03 00:00:30",1558365,3.357,293.5,5.65,1.109,5.437,101.4609,3.027,4.223,40.96,0,109.8,13.5,3.79,255.5
"2010-01-03 00:01:00",1558366,3.194,288.1,5.146,1.011,5.326,101.4601,3.025,4.298,41.1,0,109.8,13.5,3.79,250.1
"2010-01-03 00:01:30",1558367,4.545,291.8,5.369,1.145,7.688,101.4615,3.028,4.354,41.35,0,109.8,13.5,3.79,253.8
"2010-01-03 00:02:00",1558368,3.031,280,4.392,0.794,4.847,101.4664,3.041,4.257,41.4,0,109.8,13.5,3.80,242.0
"2010-01-03 00:02:30",1558369,3.223,280,4.699,0.958,4.795,101.4687,3.047,4.149,41.35,0,109.8,13.5,3.81,242.0
"2010-01-03 00:03:00",1558370,4.596,289.9,5.661,1.132,7.785,101.4704,3.051,4.312,41.39,0,109.8,13.5,3.81,251.9
"2010-01-03 00:03:30",1558371,3.574,288.9,7.621,1.178,6.216,101.471,3.053,4.303,41.29,0,109.8,13.5,3.82,250.9
"2010-01-03 00:04:00",1558372,2.783,288.4,6.242,0.908,4.75,101.4724,3.056,4.13,41.08,0,109.8,13.5,3.82,250.4
"2010-01-03 00:04:30",1558373,4.151,300.9,5.561,1.209,7.285,101.4725,3.056,4.337,41.36,0,109.8,13.5,3.82,262.9
"2010-01-03 00:05:00",1558374,4.146,300.5,6.04,1.093,7.782,101.4722,3.056,4.249,41.28,0,109.8,13.5,3.82,262.5
"2010-01-03 00:05:30",1558375,2.333,288.2,4.827,0.874,4.105,101.4654,3.039,4.086,41.29,0,109.8,13.5,3.80,250.2
"2010-01-03 00:06:00",1558376,2.847,293.7,7.628,1.319,5.857,101.4564,3.016,4.201,41.65,0,109.8,13.5,3.78,255.7
"2010-01-03 00:06:30",1558377,3.589,303.6,5.416,1.133,7.266,101.4542,3.01,4.327,41.51,0,109.8,13.5,3.77,265.6
"2010-01-03 00:07:00",1558378,2.349,302.4,6.286,1.123,5.527,101.4531,3.007,4.241,41.64,0,109.7,13.51,3.77,264.4
"2010-01-03 00:07:30",1558379,2.053,302,7.681,0.934,4.028,101.458,3.019,4.062,41.66,0,109.7,13.51,3.78,264.0
"2010-01-03 00:08:00",1558380,3.603,309.8,8.79,1.254,6.678,101.4583,3.02,4.217,41.28,0,109.7,13.51,3.78,271.8
"2010-01-03 00:08:30",1558381,3.085,310.5,6.481,1.295,6.537,101.4583,3.02,4.302,40.49,0,109.7,13.51,3.78,272.5
"2010-01-03 00:09:00",1558382,1.629,306,2.583,0.101,3.751,101.4591,3.022,4.11,40.22,0,109.7,13.54,3.78,268.0
"2010-01-03 00:09:30",1558383,3.082,313.9,6.64,1.204,6.076,101.4571,3.017,4.13,40,0,109.7,13.5,3.78,275.9
"2010-01-03 00:10:00",1558384,3.475,316.6,5.933,1.219,6.997,101.4506,3.001,4.235,39.87,0,109.7,13.51,3.76,278.6
"2010-01-03 00:10:30",1558385,2.314,318.4,5.163,0.782,4.572,101.4447,2.986,4.19,39.6,0,109.7,13.5,3.75,280.4
"2010-01-03 00:11:00",1558386,3.128,321.4,5.702,1.331,5.282,101.4322,2.954,4.013,39.3,0,109.7,13.5,3.72,283.4
"2010-01-03 00:11:30",1558387,5.339,327.7,11.79,1.418,6.428,101.4257,2.937,4.213,39.2,0,109.7,13.51,3.70,289.7
"2010-01-03 00:12:00",1558388,6.329,325.6,6.848,1.024,7.759,101.4252,2.936,4.253,38.58,0,109.7,13.5,3.70,287.6
"2010-01-03 00:12:30",1558389,6.209,315.5,8.23,1.259,6.217,101.4252,2.936,4.07,38.1,0,109.7,13.51,3.70,277.5
"2010-01-03 00:13:00",1558390,6.618,323.5,6.604,1.134,7.506,101.4252,2.936,4.211,37.87,0,109.7,13.5,3.70,285.5
"2010-01-03 00:13:30",1558391,6.289,317.6,6.079,1.082,5.858,101.4252,2.936,4.083,37.49,0,109.7,13.5,3.70,279.6
"2010-01-03 00:14:00",1558392,6.789,321.1,5.738,1.077,8.25,101.4226,2.929,4.261,37.47,0,109.7,13.51,3.69,283.1
"2010-01-03 00:14:30",1558393,6.628,315.7,6.136,1.368,7.391,101.4159,2.912,4.17,37.27,0,109.7,13.51,3.67,277.7
"2010-01-03 00:15:00",1558394,7.393,323.9,4.146,0.989,8.95,101.4009,2.874,4.239,37.26,0,109.7,13.51,3.64,285.9
"2010-01-03 00:15:30",1558395,6.469,317.4,6.897,1.081,7.017,101.3946,2.858,4.087,37.02,0,109.7,13.51,3.62,279.4
"2010-01-03 00:16:00",1558396,6.67,317.9,6.151,1.066,7.476,101.3927,2.853,4.121,37.01,0,109.8,13.51,3.61,279.9
"2010-01-03 00:16:30",1558397,6.225,318.7,6.614,1.217,7.749,101.3927,2.853,4.122,36.97,0,109.7,13.51,3.61,280.7
"2010-01-03 00:17:00",1558398,5.256,324,8.47,1.377,7.428,101.3958,2.861,4.205,36.94,0,109.7,13.51,3.62,286.0
"2010-01-03 00:17:30",1558399,6.141,330.8,7.334,1.168,7.696,101.3964,2.862,4.111,36.83,0,109.7,13.51,3.62,292.8
"2010-01-03 00:18:00",1558400,4.816,321.5,5.452,1.055,5.009,101.3987,2.868,4.007,36.61,0,109.7,13.51,3.63,283.5
"2010-01-03 00:18:30",1558401,4.847,321.3,11.78,1.335,6.464,101.4007,2.873,4.1,36.64,0,109.7,13.51,3.64,283.3
"2010-01-03 00:19:00",1558402,4.332,328.7,7.384,1.271,7.18,101.4056,2.886,4.197,36.83,0,109.7,13.51,3.65,290.7
"2010-01-03 00:19:30",1558403,3.337,329.8,7.656,1.35,6.572,101.4087,2.894,4.055,37.06,0,109.7,13.51,3.66,291.8
"2010-01-03 00:20:00",1558404,4.197,331.4,16.94,1.132,7.575,101.4198,2.922,4.095,37.23,0,109.7,13.51,3.68,293.4
"2010-01-03 00:20:30",1558405,4.568,319.7,6.52,1.144,6.546,101.4277,2.942,4.132,37.01,0,109.7,13.52,3.70,281.7
"2010-01-03 00:21:00",1558406,4.913,318.3,7.635,1.078,6.933,101.4408,2.976,4.161,36.84,0,109.7,13.52,3.74,280.3
"2010-01-03 00:21:30",1558407,5.553,324.6,7.912,1.109,6.664,101.4482,2.994,4.188,36.69,0,109.7,13.52,3.76,286.6
"2010-01-03 00:22:00",1558408,7.182,322.5,9.43,1.24,7.278,101.4504,3,4.198,36.62,0,109.7,13.52,3.76,284.5
"2010-01-03 00:22:30",1558409,6.752,321.1,7.347,1.294,8.18,101.4527,3.006,4.225,36.67,0,109.7,13.52,3.77,283.1
"2010-01-03 00:23:00",1558410,6.397,337.8,7.154,0.959,8.39,101.4539,3.009,4.207,36.44,0,109.8,13.52,3.77,299.8
"2010-01-03 00:23:30",1558411,5.83,327.3,7.066,1.036,6.38,101.4559,3.014,4.174,36.29,0,109.7,13.52,3.78,289.3
"2010-01-03 00:24:00",1558412,6.602,323.1,8.45,1.193,7.36,101.4564,3.016,4.199,36.29,0,109.7,13.52,3.78,285.1
"2010-01-03 00:24:30",1558413,6.114,317.5,5.748,1.149,5.919,101.4579,3.019,4.101,36.2,0,109.7,13.52,3.78,279.5
"2010-01-03 00:25:00",1558414,8.09,317,6.136,1.409,7.358,101.4582,3.02,4.249,36.45,0,109.7,13.52,3.78,279.0
"2010-01-03 00:25:30",1558415,8.72,322.5,5.946,0.925,8.8,101.459,3.022,4.272,36.58,0,109.7,13.51,3.78,284.5
"2010-01-03 00:26:00",1558416,8.11,325.4,6.194,0.792,8.97,101.4596,3.024,4.331,36.56,0,109.7,13.51,3.79,287.4
"2010-01-03 00:26:30",1558417,7.573,325.1,6.359,0.951,8.14,101.4661,3.04,4.24,36.35,0,109.7,13.51,3.80,287.1
"2010-01-03 00:27:00",1558418,5.607,316.2,4.57,1.066,5.144,101.476,3.066,4.106,36.21,0,109.7,13.51,3.83,278.2
"2010-01-03 00:27:30",1558419,6.216,319.9,6.438,1.514,6.512,101.4828,3.083,4.196,36.14,0,109.7,13.51,3.85,281.9
"2010-01-03 00:28:00",1558420,6.839,326.4,4.524,0.812,8.37,101.4896,3.1,4.29,36.19,0,109.7,13.51,3.86,288.4
"2010-01-03 00:28:30",1558421,7.283,320.8,7.383,1.451,8.16,101.4935,3.11,4.304,36.13,0,109.7,13.51,3.87,282.8
"2010-01-03 00:29:00",1558422,6.37,324.2,8.51,1.031,8.78,101.4935,3.11,4.364,36.08,0,109.7,13.51,3.87,286.2
"2010-01-03 00:29:30",1558423,5.767,321.4,8.67,1.304,7.454,101.4935,3.11,4.244,35.9,0,109.7,13.51,3.87,283.4
"2010-01-03 00:30:00",1558424,5.388,322.7,9.6,1.172,6.098,101.4935,3.11,4.238,35.84,0,109.7,13.51,3.87,284.7
"2010-01-03 00:30:30",1558425,4.507,314.8,7.16,0.885,6.42,101.4935,3.11,4.225,35.73,0,109.7,13.51,3.87,276.8
"2010-01-03 00:31:00",1558426,8.11,330.1,8.11,1.541,7.621,101.4938,3.111,4.309,35.77,0,109.7,13.52,3.87,292.1
"2010-01-03 00:31:30",1558427,7.744,325.1,5.719,1.243,8.33,101.5023,3.133,4.346,35.72,0,109.7,13.52,3.90,287.1
"2010-01-03 00:32:00",1558428,8.28,318.4,5.55,1.18,9.07,101.5133,3.161,4.438,35.77,0,109.7,13.52,3.92,280.4
"2010-01-03 00:32:30",1558429,8.66,317.6,6.005,1.367,7.632,101.5224,3.184,4.307,35.54,0,109.7,13.52,3.95,279.6
"2010-01-03 00:33:00",1558430,8.15,318.7,7.061,1.292,8.18,101.5272,3.196,4.37,35.46,0,109.7,13.52,3.96,280.7
"2010-01-03 00:33:30",1558431,6.559,310.7,8.34,1.293,6.493,101.5275,3.197,4.324,35.32,0,109.7,13.52,3.96,272.7
"2010-01-03 00:34:00",1558432,8.56,315.6,5.804,1.073,8.3,101.5275,3.197,4.4,35.44,0,109.7,13.52,3.96,277.6
"2010-01-03 00:34:30",1558433,8.69,321.2,6.766,1.133,7.865,101.5275,3.197,4.409,35.54,0,109.7,13.52,3.96,283.2
"2010-01-03 00:35:00",1558434,9.55,323.9,3.926,0.84,9.22,101.5275,3.197,4.47,35.48,0,109.7,13.52,3.96,285.9
"2010-01-03 00:35:30",1558435,10.29,323.6,4.241,0.823,9.17,101.5275,3.197,4.479,35.42,0,109.7,13.52,3.96,285.6
"2010-01-03 00:36:00",1558436,10.18,322.5,6.097,1.03,8.02,101.5275,3.197,4.454,35.29,0,109.7,13.52,3.96,284.5
"2010-01-03 00:36:30",1558437,8.99,323.9,4.537,1.109,8.26,101.5275,3.197,4.436,35.22,0,109.7,13.52,3.96,285.9
"2010-01-03 00:37:00",1558438,9.91,324.1,9.17,1.101,8.13,101.5275,3.197,4.45,35.15,0,109.7,13.52,3.96,286.1
"2010-01-03 00:37:30",1558439,9.72,323.6,6.205,1.232,7.507,101.5275,3.197,4.38,35.01,0,109.7,13.52,3.96,285.6
"2010-01-03 00:38:00",1558440,10.53,323.1,5.229,1.177,8.44,101.5275,3.197,4.526,35.11,0,109.7,13.52,3.96,285.1
"2010-01-03 00:38:30",1558441,10.65,325.6,3.994,0.808,9.05,101.5286,3.2,4.522,35.01,0,109.7,13.52,3.96,287.6
"2010-01-03 00:39:00",1558442,9.87,326.1,6.364,0.769,9.43,101.5286,3.2,4.507,34.98,0,109.7,13.52,3.96,288.1
"2010-01-03 00:39:30",1558443,10.06,323.6,6.16,1.099,8.11,101.5354,3.217,4.468,34.85,0,109.7,13.52,3.98,285.6
"2010-01-03 00:40:00",1558444,9.64,325.3,5.276,0.973,8.35,101.5428,3.236,4.503,34.87,0,109.7,13.52,4.00,287.3
"2010-01-03 00:40:30",1558445,10.53,324.4,5.297,0.826,8.66,101.5447,3.241,4.51,34.77,0,109.7,13.52,4.00,286.4
"2010-01-03 00:41:00",1558446,9.76,323.6,5.094,0.956,8.71,101.5487,3.251,4.533,34.66,0,109.7,13.52,4.01,285.6
"2010-01-03 00:41:30",1558447,9.87,321.3,7.261,1.116,7.721,101.5496,3.253,4.543,34.47,0,109.7,13.52,4.02,283.3
"2010-01-03 00:42:00",1558448,8.04,329.4,4.847,1.303,7.631,101.5498,3.254,4.479,34.36,0,109.7,13.52,4.02,291.4
"2010-01-03 00:42:30",1558449,7.61,313.2,6.887,1.305,5.808,101.5552,3.268,4.425,34.34,0,109.7,13.52,4.03,275.2
"2010-01-03 00:43:00",1558450,10.47,319.6,5.46,1.067,8.23,101.5578,3.274,4.503,34.26,0,109.7,13.52,4.04,281.6
"2010-01-03 00:43:30",1558451,10.26,324.7,4.412,0.831,9.27,101.5597,3.279,4.564,34.34,0,109.7,13.52,4.04,286.7
"2010-01-03 00:44:00",1558452,10.51,321,6.269,0.907,9.08,101.5609,3.282,4.578,34.3,0,109.8,13.52,4.05,283.0
"2010-01-03 00:44:30",1558453,10.63,324.6,4.208,0.936,8.9,101.5614,3.284,4.593,34.39,0,109.7,13.52,4.05,286.6
"2010-01-03 00:45:00",1558454,9.56,320.4,9.2,1.104,9.09,101.5617,3.284,4.584,34.37,0,109.7,13.52,4.05,282.4
"2010-01-03 00:45:30",1558455,10.23,323.8,5.079,1.028,8.44,101.5614,3.284,4.597,34.4,0,109.7,13.51,4.05,285.8
"2010-01-03 00:46:00",1558456,10.68,322.1,5.194,0.766,8.62,101.5614,3.284,4.594,34.36,0,109.7,13.51,4.05,284.1
"2010-01-03 00:46:30",1558457,10.38,324.2,5.876,0.672,8.32,101.5614,3.284,4.605,34.24,0,109.7,13.52,4.05,286.2
"2010-01-03 00:47:00",1558458,9.57,333.6,8.73,0.986,8.34,101.5617,3.284,4.595,34.19,0,109.7,13.52,4.05,295.6
"2010-01-03 00:47:30",1558459,8.55,321.5,7.5,1.263,8.22,101.5617,3.284,4.618,34.2,0,109.7,13.52,4.05,283.5
"2010-01-03 00:48:00",1558460,10.54,322.3,4.483,0.763,8.1,101.5614,3.284,4.587,34.04,0,109.7,13.52,4.05,284.3
"2010-01-03 00:48:30",1558461,9.11,321.4,5.671,1.058,8.25,101.5617,3.284,4.603,34.06,0,109.7,13.52,4.05,283.4
"2010-01-03 00:49:00",1558462,8.81,319.4,3.715,0.897,8.2,101.5626,3.286,4.609,33.99,0,109.7,13.52,4.05,281.4
"2010-01-03 00:49:30",1558463,7.265,316.3,4.485,1.039,6.219,101.5623,3.286,4.492,33.81,0,109.7,13.52,4.05,278.3
"2010-01-03 00:50:00",1558464,6.438,316,3.065,0.336,3.876,101.5626,3.286,4.333,33.69,0,109.7,13.55,4.05,278.0
"2010-01-03 00:50:30",1558465,8.29,308.9,10.33,0.641,5.579,101.5637,3.289,4.366,33.73,0,109.7,13.52,4.05,270.9
"2010-01-03 00:51:00",1558466,8.25,320,9.71,1.24,8.94,101.5648,3.292,4.653,33.89,0,109.7,13.52,4.06,282.0
"2010-01-03 00:51:30",1558467,8.89,324.9,6.545,0.935,9.97,101.5694,3.304,4.644,33.96,0,109.7,13.53,4.07,286.9
"2010-01-03 00:52:00",1558468,9.43,326.8,5.283,0.742,9.62,101.5745,3.317,4.639,33.86,0,109.7,13.53,4.08,288.8
"2010-01-03 00:52:30",1558469,9.19,330.4,6.035,0.757,9.35,101.579,3.328,4.643,33.83,0,109.7,13.53,4.09,292.4
"2010-01-03 00:53:00",1558470,10.2,322.6,3.958,0.689,8.95,101.581,3.333,4.642,33.79,0,109.7,13.52,4.10,284.6
"2010-01-03 00:53:30",1558471,8.95,324,3.11,1.021,8.78,101.5827,3.338,4.649,33.78,0,109.7,13.52,4.10,286.0
"2010-01-03 00:54:00",1558472,9.77,319.7,5.255,0.787,8.51,101.5889,3.354,4.652,33.74,0,109.7,13.52,4.12,281.7
"2010-01-03 00:54:30",1558473,10.75,322.3,2.48,0.863,8.19,101.594,3.367,4.647,33.71,0,109.7,13.52,4.13,284.3
"2010-01-03 00:55:00",1558474,10.56,320.3,2.946,0.679,8.03,101.5954,3.37,4.642,33.71,0,109.7,13.52,4.13,282.3
"2010-01-03 00:55:30",1558475,11.19,322.3,3.138,0.925,8.23,101.5954,3.37,4.66,33.71,0,109.7,13.52,4.13,284.3
"2010-01-03 00:56:00",1558476,12.01,320.8,3.059,0.808,8.26,101.59,3.357,4.649,33.63,0,109.7,13.52,4.12,282.8
"2010-01-03 00:56:30",1558477,11.38,323.8,3.234,0.827,8.71,101.5921,3.362,4.643,33.54,0,109.7,13.52,4.13,285.8
"2010-01-03 00:57:00",1558478,9.96,324.2,3.216,0.95,8.73,101.5873,3.349,4.648,33.65,0,109.7,13.52,4.11,286.2
"2010-01-03 00:57:30",1558479,10.33,319,3.241,0.833,8.49,101.5867,3.348,4.656,33.68,0,109.7,13.52,4.11,281.0
"2010-01-03 00:58:00",1558480,10.53,320.4,3.35,0.773,8.2,101.589,3.354,4.657,33.43,0,109.7,13.52,4.12,282.4
"2010-01-03 00:58:30",1558481,10.65,321.9,2.353,0.835,8.23,101.5867,3.348,4.653,33.51,0,109.7,13.52,4.11,283.9
"2010-01-03 00:59:00",1558482,9.81,325.4,4.001,0.943,8.45,101.5867,3.348,4.665,33.44,0,109.7,13.52,4.11,287.4
"2010-01-03 00:59:30",1558483,9.75,323.3,3.951,0.909,8.35,101.5876,3.35,4.665,33.43,0,109.7,13.51,4.11,285.3
"2010-01-03 01:00:00",1558484,9.23,324.9,7.455,1.05,8.21,101.5884,3.352,4.662,33.42,0,109.7,13.52,4.12,286.9
"2010-01-03 01:00:30",1558485,9.53,329,4.985,0.945,8.21,101.5893,3.355,4.664,33.47,0,109.7,13.51,4.12,291.0
"2010-01-03 01:01:00",1558486,9.84,321.2,4.276,0.834,8.01,101.5913,3.36,4.655,33.42,0,109.7,13.51,4.12,283.2
"2010-01-03 01:01:30",1558487,10.29,319.1,5.756,0.883,7.906,101.5938,3.366,4.677,33.4,0,109.7,13.51,4.13,281.1
"2010-01-03 01:02:00",1558488,10.32,327.3,3.674,0.783,7.891,101.5938,3.366,4.668,33.41,0,109.7,13.51,4.13,289.3
"2010-01-03 01:02:30",1558489,9.96,326.9,5.156,1.021,8.18,101.5941,3.367,4.666,33.35,0,109.7,13.52,4.13,288.9
"2010-01-03 01:03:00",1558490,8.79,335.7,4.026,0.799,8.19,101.5941,3.367,4.663,33.41,0,109.7,13.52,4.13,297.7
"2010-01-03 01:03:30",1558491,8.63,332.6,4.462,0.813,7.925,101.5949,3.369,4.676,33.55,0,109.7,13.52,4.13,294.6
"2010-01-03 01:04:00",1558492,8.57,325,5.757,0.949,6.251,101.5958,3.371,4.54,33.31,0,109.7,13.52,4.14,287.0
"2010-01-03 01:04:30",1558493,8.71,323.7,6.603,0.889,5.383,101.5935,3.365,4.569,33.21,0,109.7,13.52,4.13,285.7
"2010-01-03 01:05:00",1558494,8.66,317.9,5.343,1.525,5.61,101.5969,3.374,4.442,32.98,0,109.7,13.52,4.14,279.9
"2010-01-03 01:05:30",1558495,10.17,325.8,5.979,0.992,8.66,101.5935,3.365,4.641,33.2,0,109.7,13.52,4.13,287.8
"2010-01-03 01:06:00",1558496,10.04,333.5,6.438,0.597,9.41,101.5967,3.373,4.69,33.28,0,109.7,13.53,4.14,295.5
"2010-01-03 01:06:30",1558497,9.43,326.1,3.207,0.845,9.56,101.5969,3.374,4.674,33.27,0,109.7,13.53,4.14,288.1
"2010-01-03 01:07:00",1558498,10,325.9,4.88,1.209,9.17,101.5978,3.376,4.666,33.25,0,109.7,13.53,4.14,287.9
"2010-01-03 01:07:30",1558499,10.74,325.8,6.089,0.809,9.03,101.5986,3.378,4.667,33.2,0,109.7,13.53,4.14,287.8
"2010-01-03 01:08:00",1558500,9.87,331.2,5.375,0.909,8.88,101.5972,3.375,4.668,33.15,0,109.7,13.52,4.14,293.2
"2010-01-03 01:08:30",1558501,11.33,330,3.463,0.816,8.64,101.5941,3.367,4.67,33.15,0,109.7,13.52,4.13,292.0
"2010-01-03 01:09:00",1558502,10.63,334.1,2.639,0.768,8.37,101.5927,3.363,4.662,33.21,0,109.7,13.52,4.13,296.1
"2010-01-03 01:09:30",1558503,10.99,331.6,3.435,0.855,8.24,101.5893,3.355,4.675,33.33,0,109.7,13.52,4.12,293.6
"2010-01-03 01:10:00",1558504,10.58,328.2,3.33,0.908,8.46,101.5896,3.355,4.685,33.37,0,109.7,13.52,4.12,290.2
"2010-01-03 01:10:30",1558505,9.38,329.3,5.187,0.84,8.49,101.5887,3.353,4.663,33.42,0,109.7,13.52,4.12,291.3
"2010-01-03 01:11:00",1558506,9.94,331.6,3.707,0.491,8.07,101.5867,3.348,4.661,33.35,0,109.7,13.52,4.11,293.6
"2010-01-03 01:11:30",1558507,9.96,332.6,3.431,0.758,8.06,101.5848,3.343,4.665,33.43,0,109.7,13.52,4.11,294.6
"2010-01-03 01:12:00",1558508,9.66,331.8,3.041,0.796,7.975,101.5765,3.322,4.656,33.48,0,109.7,13.52,4.09,293.8
"2010-01-03 01:12:30",1558509,9.73,330.9,3.426,0.785,8.06,101.5712,3.308,4.654,33.46,0,109.7,13.52,4.07,292.9
"2010-01-03 01:13:00",1558510,9.93,333.8,3.72,0.649,7.983,101.5709,3.308,4.673,33.42,0,109.7,13.52,4.07,295.8
"2010-01-03 01:13:30",1558511,9.58,333.8,3.293,0.856,7.954,101.5701,3.306,4.661,33.38,0,109.7,13.52,4.07,295.8
"2010-01-03 01:14:00",1558512,9.84,331.3,3.562,0.689,7.953,101.5695,3.304,4.657,33.33,0,109.7,13.52,4.07,293.3
"2010-01-03 01:14:30",1558513,9.39,335,3.839,0.717,8.07,101.5689,3.303,4.653,33.35,0,109.7,13.52,4.07,297.0
"2010-01-03 01:15:00",1558514,8.5,337.9,3.975,0.773,7.943,101.5678,3.3,4.634,33.4,0,109.7,13.52,4.06,299.9
"2010-01-03 01:15:30",1558515,8.24,329.7,6.214,0.974,5.017,101.5675,3.299,4.509,33.28,0,109.7,13.52,4.06,291.7
"2010-01-03 01:16:00",1558516,8.43,335.9,8.72,1.232,6.527,101.5678,3.3,4.434,33.25,0,109.7,13.52,4.06,297.9
"2010-01-03 01:16:30",1558517,6.919,332.9,6.031,1.091,5.33,101.5703,3.306,4.462,33.32,0,109.7,13.52,4.07,294.9
"2010-01-03 01:17:00",1558518,8.55,336.8,4.717,0.76,8.8,101.5689,3.303,4.645,33.55,0,109.7,13.52,4.07,298.8
"2010-01-03 01:17:30",1558519,8.58,340.2,4.604,0.768,9.04,101.5698,3.305,4.654,33.56,0,109.7,13.52,4.07,302.2
"2010-01-03 01:18:00",1558520,7.575,342.7,6.262,1.095,8.22,101.5689,3.303,4.598,33.54,0,109.7,13.52,4.07,304.7
"2010-01-03 01:18:30",1558521,6.264,337.2,8.05,1.056,7.325,101.5703,3.306,4.462,33.47,0,109.7,13.52,4.07,299.2
"2010-01-03 01:19:00",1558522,5.93,328.2,4.559,0.507,4.363,101.5689,3.303,4.413,33.47,0,109.7,13.52,4.07,290.2
"2010-01-03 01:19:30",1558523,6.876,334.4,5.723,1.481,6.196,101.5706,3.307,4.45,33.52,0,109.7,13.53,4.07,296.4
"2010-01-03 01:20:00",1558524,7.361,338.7,6.098,1.103,8.28,101.568,3.3,4.574,33.63,0,109.7,13.53,4.06,300.7
"2010-01-03 01:20:30",1558525,8.42,330.2,7.192,1.346,7.896,101.5683,3.301,4.574,33.58,0,109.7,13.53,4.06,292.2
"2010-01-03 01:21:00",1558526,8.59,335,5.806,0.962,8.85,101.5652,3.293,4.568,33.57,0,109.7,13.53,4.06,297.0
"2010-01-03 01:21:30",1558527,9.12,337.9,4.663,0.589,8.84,101.5624,3.286,4.549,33.54,0,109.7,13.53,4.05,299.9
"2010-01-03 01:22:00",1558528,7.992,337.2,4.394,1.16,8.25,101.5562,3.27,4.557,33.48,0,109.7,13.53,4.03,299.2
"2010-01-03 01:22:30",1558529,6.054,333.3,6.479,0.968,5.746,101.5477,3.248,4.505,33.45,0,109.7,13.53,4.01,295.3
"2010-01-03 01:23:00",1558530,6.327,341.4,6.963,1.3,6.159,101.5429,3.236,4.386,33.39,0,109.7,13.53,4.00,303.4
"2010-01-03 01:23:30",1558531,7.246,337.5,4.714,1.241,6.865,101.5407,3.231,4.467,33.54,0,109.7,13.53,3.99,299.5
"2010-01-03 01:24:00",1558532,7.305,350.1,8.65,1.028,8.09,101.5367,3.22,4.546,33.63,0,109.7,13.53,3.98,312.1
"2010-01-03 01:24:30",1558533,7.05,343.1,6.948,1.174,7.888,101.5378,3.223,4.552,33.73,0,109.7,13.54,3.99,305.1
"2010-01-03 01:25:00",1558534,6.604,341.7,6.306,1.262,7.616,101.5393,3.227,4.474,33.71,0,109.7,13.53,3.99,303.7
"2010-01-03 01:25:30",1558535,7.664,336.3,9.19,1.384,6.758,101.539,3.226,4.459,33.68,0,109.7,13.53,3.99,298.3
"2010-01-03 01:26:00",1558536,6.335,335.6,4.617,1.345,5.499,101.5378,3.223,4.355,33.62,0,109.7,13.53,3.99,297.6
"2010-01-03 01:26:30",1558537,7.247,339.6,7.091,1.157,7.54,101.5373,3.222,4.506,33.85,0,109.7,13.54,3.99,301.6
"2010-01-03 01:27:00",1558538,5.592,349.1,9.14,1.359,7.227,101.5413,3.232,4.457,33.8,0,109.7,13.54,4.00,311.1
"2010-01-03 01:27:30",1558539,7.237,348,5.449,1.107,7.985,101.5387,3.226,4.496,34.02,0,109.6,13.54,3.99,310.0
"2010-01-03 01:28:00",1558540,6.995,345.9,9.84,1.085,7.926,101.5384,3.225,4.508,34.12,0,109.7,13.54,3.99,307.9
"2010-01-03 01:28:30",1558541,6.041,332,6.746,1.127,4.825,101.537,3.221,4.301,33.99,0,109.7,13.54,3.98,294.0
"2010-01-03 01:29:00",1558542,6.893,336.2,7.557,1.229,6.134,101.5333,3.212,4.407,34.11,0,109.7,13.54,3.98,298.2
"2010-01-03 01:29:30",1558543,7.492,333,7.536,1.148,6.793,101.5262,3.194,4.485,34.18,0,109.7,13.54,3.96,295.0
"2010-01-03 01:30:00",1558544,8.2,340.3,4.655,0.968,7.917,101.5115,3.156,4.515,34.53,0,109.7,13.54,3.92,302.3
"2010-01-03 01:30:30",1558545,8.05,333.6,7.281,1.097,7.58,101.5047,3.139,4.445,34.7,0,109.7,13.53,3.90,295.6
"2010-01-03 01:31:00",1558546,8.24,332,7.39,0.995,6.762,101.505,3.14,4.441,34.45,0,109.7,13.53,3.90,294.0
"2010-01-03 01:31:30",1558547,9.96,331.2,5.078,1.047,7.573,101.5068,3.144,4.504,34.34,0,109.7,13.53,3.91,293.2
"2010-01-03 01:32:00",1558548,9.63,331.3,4.906,0.941,7.378,101.5079,3.147,4.433,34.25,0,109.7,13.53,3.91,293.3
"2010-01-03 01:32:30",1558549,8.32,334.7,5.852,1.043,6.813,101.5062,3.143,4.434,34.76,0,109.7,13.53,3.91,296.7
"2010-01-03 01:33:00",1558550,8.44,337.2,5.336,0.982,7.431,101.4895,3.1,4.411,35.2,0,109.7,13.53,3.86,299.2
"2010-01-03 01:33:30",1558551,7.928,331.4,5.738,1.241,6.718,101.4771,3.068,4.432,34.98,0,109.7,13.53,3.83,293.4
"2010-01-03 01:34:00",1558552,7.803,338.9,6.604,1.161,7.42,101.474,3.06,4.334,34.54,0,109.7,13.53,3.82,300.9
"2010-01-03 01:34:30",1558553,6.307,337.1,6.179,1.114,4.869,101.4745,3.062,4.189,34.78,0,109.7,13.53,3.82,299.1
"2010-01-03 01:35:00",1558554,7.674,341.1,4.545,0.872,7.297,101.4604,3.026,4.37,35.3,0,109.7,13.53,3.79,303.1
"2010-01-03 01:35:30",1558555,7.426,335,6.351,1.073,7.029,101.4432,2.982,4.323,35.16,0,109.7,13.53,3.74,297.0
"2010-01-03 01:36:00",1558556,7.277,336.4,4.801,0.999,7.207,101.4437,2.983,4.302,35.03,0,109.7,13.54,3.75,298.4
"2010-01-03 01:36:30",1558557,7.206,338.4,5.872,1.132,6.731,101.4446,2.985,4.258,34.92,0,109.7,13.54,3.75,300.4
"2010-01-03 01:37:00",1558558,6.02,332.5,6.049,1.461,5.209,101.4276,2.942,4.245,35.28,0,109.7,13.54,3.70,294.5
"2010-01-03 01:37:30",1558559,6.813,341.7,5.689,1.309,6.733,101.4121,2.902,4.153,35.33,0,109.8,13.54,3.66,303.7
"2010-01-03 01:38:00",1558560,6.933,339.7,4.838,0.934,7.382,101.4109,2.899,4.275,35.47,0,109.7,13.54,3.66,301.7
"2010-01-03 01:38:30",1558561,6.064,338.5,5.026,1.266,6.621,101.3948,2.858,4.197,35.44,0,109.7,13.54,3.62,300.5
"2010-01-03 01:39:00",1558562,7.043,341.8,5.864,1.429,6.97,101.379,2.818,4.185,35.49,0,109.7,13.54,3.58,303.8
"2010-01-03 01:39:30",1558563,7.27,336.7,7.066,1.05,6.727,101.3813,2.824,4.129,35.32,0,109.7,13.54,3.59,298.7
"2010-01-03 01:40:00",1558564,5.924,339.7,7.175,1.414,5.247,101.372,2.8,4.021,35.46,0,109.7,13.54,3.56,301.7
"2010-01-03 01:40:30",1558565,5.55,340.9,6.586,1.453,5.634,101.3488,2.741,4.098,36.16,0,109.7,13.54,3.50,302.9
"2010-01-03 01:41:00",1558566,5.227,345.2,9,1.141,6.709,101.3502,2.744,4.072,36.37,0,109.7,13.54,3.51,307.2
"2010-01-03 01:41:30",1558567,5.746,341.2,7.4,1.414,6.262,101.3372,2.711,4.07,36.67,0,109.7,13.54,3.47,303.2
"2010-01-03 01:42:00",1558568,6.513,341.8,5.536,1.226,6.128,101.3165,2.659,4.013,36.58,0,109.7,13.54,3.42,303.8
"2010-01-03 01:42:30",1558569,6.048,345.9,6.873,1.437,5.646,101.3177,2.661,3.983,36.42,0,109.7,13.54,3.42,307.9
"2010-01-03 01:43:00",1558570,5.246,336.4,6.998,0.982,4.43,101.3069,2.634,3.945,36.52,0,109.7,13.55,3.40,298.4
"2010-01-03 01:43:30",1558571,6.38,343.4,9.15,1.025,6.475,101.282,2.57,3.948,36.68,0,109.7,13.55,3.33,305.4
"2010-01-03 01:44:00",1558572,6.605,353.2,6.141,0.955,7.467,101.2823,2.571,3.933,36.76,0,109.7,13.55,3.33,315.2
"2010-01-03 01:44:30",1558573,6.256,353.4,8.07,1.18,6.861,101.269,2.537,3.902,36.77,0,109.7,13.55,3.30,315.4
"2010-01-03 01:45:00",1558574,6.801,348,6.445,1.295,6.046,101.2489,2.486,3.795,36.54,0,109.7,13.55,3.25,310.0
"2010-01-03 01:45:30",1558575,3.269,355.6,13.92,1.052,4.144,101.2495,2.487,3.78,36.9,0,109.7,13.55,3.25,317.6
"2010-01-03 01:46:00",1558576,5.568,352.5,5.387,1.63,5.804,101.2348,2.45,3.799,37.19,0,109.7,13.55,3.21,314.5
"2010-01-03 01:46:30",1558577,6.678,350.9,7.427,1,6.549,101.215,2.399,3.813,36.93,0,109.7,13.54,3.16,312.9
"2010-01-03 01:47:00",1558578,5.919,352.6,5.972,1.26,7.054,101.2152,2.4,3.784,37,0,109.7,13.54,3.16,314.6
"2010-01-03 01:47:30",1558579,5.707,356,7.875,1.097,6.622,101.2155,2.401,3.781,37.15,0,109.7,13.54,3.16,318.0
"2010-01-03 01:48:00",1558580,5.552,349.4,9.11,1.397,5.804,101.2042,2.372,3.758,37.16,0,109.6,13.54,3.13,311.4
"2010-01-03 01:48:30",1558581,5.602,347.4,7.077,1.216,5.629,101.1847,2.322,3.494,36.95,0,109.7,13.54,3.08,309.4